DW9945 Weather Reports


time (UTC)temp
C
wind
direction
speed
KPH
gust
KPH
rain 1hr
cm
rain 24hr
cm
rain mn
cm
humidity
%
barometer
mb
20260904112506 33 220 6.4 9.7 0.00 0.00 0.00 16 1020.1
20260904112005 33 221 4.8 8.0 0.00 0.00 0.00 16 1020.2
20260904111506 32 187 6.4 11.3 0.00 0.00 0.00 17 1020.1
20260904111005 32 190 4.8 8.0 0.00 0.00 0.00 17 1020.1
20260904110506 32 150 4.8 12.9 0.00 0.00 0.00 17 1020.3
20260904110006 32 136 4.8 9.7 0.00 0.00 0.00 18 1020.4
20260904105505 32 154 3.2 9.7 0.00 0.00 0.00 18 1020.6
20260904105005 32 157 4.8 9.7 0.00 0.00 0.00 18 1020.7
20260904104005 31 162 3.2 4.8 0.00 0.00 0.00 18 1020.7
20260904103505 31 214 4.8 9.7 0.00 0.00 0.00 19 1020.8
20260904103006 31 196 3.2 4.8 0.00 0.00 0.00 19 1020.8
20260904102505 31 242 1.6 4.8 0.00 0.00 0.00 19 1020.8
20260904102006 31 179 1.6 4.8 0.00 0.00 0.00 19 1021.0
20260904101505 30 150 3.2 8.0 0.00 0.00 0.00 19 1020.9
20260904100506 30 161 4.8 9.7 0.00 0.00 0.00 19 1021.0
20260904100008 30 189 3.2 4.8 0.00 0.00 0.00 19 1021.0
20260904095507 30 230 3.2 11.3 0.00 0.00 0.00 20 1021.0
20260904095008 30 207 3.2 4.8 0.00 0.00 0.00 20 1021.0
20260904094507 30 210 1.6 4.8 0.00 0.00 0.00 20 1020.9
20260904094007 30 229 3.2 4.8 0.00 0.00 0.00 20 1020.9
20260904093508 29 68 0.0 4.8 0.00 0.00 0.00 20 1020.9
20260904093007 29 68 0.0 4.8 0.00 0.00 0.00 21 1020.9
20260904092507 28 164 1.6 3.2 0.00 0.00 0.00 22 1020.8
20260904092007 28 117 0.0 0.0 0.00 0.00 0.00 22 1020.8
20260904091508 28 117 0.0 0.0 0.00 0.00 0.00 23 1020.7
20260904091007 28 115 0.0 4.8 0.00 0.00 0.00 22 1020.8
20260904090007 27 284 1.6 3.2 0.00 0.00 0.00 22 1020.8
20260904085507 27 160 0.0 0.0 0.00 0.00 0.00 22 1020.8
20260904085007 27 160 0.0 1.6 0.00 0.00 0.00 24 1020.8
20260904084507 26 157 1.6 3.2 0.00 0.00 0.00 23 1020.8
20260904084007 26 159 1.6 3.2 0.00 0.00 0.00 23 1020.8
20260904083507 26 166 0.0 0.0 0.00 0.00 0.00 25 1020.8
20260904083007 26 184 0.0 1.6 0.00 0.00 0.00 26 1020.8
20260904082507 25 184 0.0 0.0 0.00 0.00 0.00 25 1020.8
20260904082007 25 184 0.0 0.0 0.00 0.00 0.00 25 1020.7
20260904081507 25 184 0.0 0.0 0.00 0.00 0.00 26 1020.7
20260904081007 24 184 0.0 0.0 0.00 0.00 0.00 26 1020.7
20260904080507 23 184 0.0 0.0 0.00 0.00 0.00 27 1020.7
20260904075507 22 184 0.0 0.0 0.00 0.00 0.00 28 1020.7
20260904075007 22 184 0.0 3.2 0.00 0.00 0.00 29 1020.7
20260904074507 21 184 1.6 4.8 0.00 0.00 0.00 29 1020.7
20260904073507 21 195 3.2 4.8 0.00 0.00 0.00 29 1020.7
20260904073007 21 171 1.6 4.8 0.00 0.00 0.00 30 1020.8
20260904072507 21 211 3.2 4.8 0.00 0.00 0.00 30 1020.8
20260904072007 21 185 1.6 4.8 0.00 0.00 0.00 30 1020.7
20260904071507 21 192 4.8 4.8 0.00 0.00 0.00 30 1020.7
20260904071008 20 183 3.2 4.8 0.00 0.00 0.00 30 1020.6
20260904070008 20 225 1.6 3.2 0.00 0.00 0.00 31 1020.6
20260904065007 20 204 0.0 0.0 0.00 0.00 0.00 33 1020.5
20260904064508 19 204 0.0 0.0 0.00 0.00 0.00 32 1020.4
20260904063507 20 204 0.0 0.0 0.00 0.00 0.00 32 1020.4
20260904063007 20 204 0.0 4.8 0.00 0.00 0.00 32 1020.4
20260904062507 20 208 3.2 4.8 0.00 0.00 0.00 32 1020.3
20260904062007 20 157 0.0 0.0 0.00 0.00 0.00 33 1020.2
20260904061507 20 5 0.0 0.0 0.00 0.00 0.00 33 1020.2
20260904061007 20 5 0.0 0.0 0.00 0.00 0.00 31 1020.1
20260904060007 20 5 0.0 0.0 0.00 0.00 0.00 29 1020.1
20260904055507 20 5 0.0 0.0 0.00 0.00 0.00 29 1020.1
20260904055007 20 5 0.0 0.0 0.00 0.00 0.00 28 1020.0
20260904054007 20 5 0.0 0.0 0.00 0.00 0.00 28 1019.9
20260904053507 20 5 0.0 0.0 0.00 0.00 0.00 30 1019.9
20260904053007 20 5 3.2 4.8 0.00 0.00 0.00 30 1019.8
20260904052006 20 44 0.0 4.8 0.00 0.00 0.00 30 1019.7
20260904051507 20 44 1.6 4.8 0.00 0.00 0.00 30 1019.6
20260904051007 20 30 0.0 1.6 0.00 0.00 0.00 30 1019.6
20260904045506 20 30 3.2 8.0 0.00 0.00 0.00 29 1019.5
20260904045007 20 25 4.8 4.8 0.00 0.00 0.00 29 1019.5
20260904044507 19 13 4.8 8.0 0.00 0.00 0.00 29 1019.6
20260904044007 20 68 0.0 0.0 0.00 0.00 0.00 29 1019.7
20260904043507 20 68 0.0 0.0 0.00 0.00 0.00 28 1019.7
20260904043007 20 68 0.0 0.0 0.00 0.00 0.00 28 1019.8
20260904042007 20 68 1.6 3.2 0.00 0.00 0.00 29 1019.8
20260904041007 20 23 3.2 8.0 0.00 0.00 0.00 29 1019.7
20260904040507 20 27 4.8 8.0 0.00 0.00 0.00 29 1019.7
20260904040007 20 22 0.0 4.8 0.00 0.00 0.00 29 1019.7
20260904035506 20 26 1.6 4.8 0.00 0.00 0.00 29 1019.7
20260904035007 20 34 4.8 8.0 0.00 0.00 0.00 28 1019.7
20260904034007 21 27 4.8 8.0 0.00 0.00 0.00 27 1019.7
20260904032507 22 8 4.8 8.0 0.00 0.00 0.00 24 1019.8
20260904031507 22 355 4.8 4.8 0.00 0.00 0.00 25 1019.8
20260904030007 22 16 4.8 4.8 0.00 0.00 0.00 25 1019.8
20260904025506 22 16 0.0 0.0 0.00 0.00 0.00 25 1019.8
20260904025007 22 16 0.0 0.0 0.00 0.00 0.00 25 1019.9
20260904023507 21 49 0.0 0.0 0.00 0.00 0.00 27 1019.8
20260904023007 22 49 0.0 0.0 0.00 0.00 0.00 27 1019.8
20260904022006 22 49 0.0 0.0 0.00 0.00 0.00 27 1019.7
20260904021006 23 49 0.0 0.0 0.00 0.00 0.00 27 1019.7
20260904020507 23 49 0.0 0.0 0.00 0.00 0.00 26 1019.8
20260904020008 23 49 0.0 0.0 0.00 0.00 0.00 25 1019.8
20260904015506 23 49 0.0 0.0 0.00 0.00 0.00 25 1019.9
20260904015006 24 49 0.0 0.0 0.00 0.00 0.00 23 1019.9
20260904014507 24 49 0.0 0.0 0.00 0.00 0.00 24 1019.9
20260904014007 24 49 0.0 0.0 0.00 0.00 0.00 23 1020.0
20260904013507 25 49 0.0 4.8 0.00 0.00 0.00 23 1020.1
20260904013007 24 46 4.8 9.7 0.00 0.00 0.00 23 1020.0
20260904012506 23 31 4.8 8.0 0.00 0.00 0.00 24 1020.0
20260904011506 23 33 3.2 4.8 0.00 0.00 0.00 25 1020.1
20260904011006 23 31 0.0 3.2 0.00 0.00 0.00 25 1020.2
20260904005006 23 33 3.2 8.0 0.00 0.00 0.00 24 1020.3
20260904004507 24 19 4.8 8.0 0.00 0.00 0.00 23 1020.2
20260904003518 23 17 3.2 4.8 0.00 0.00 0.00 24 1020.2
20260904003018 23 17 3.2 4.8 0.00 0.00 0.00 24 1020.3
20260904002017 24 27 3.2 4.8 0.00 0.00 0.00 24 1020.3
20260904001506 24 5 3.2 8.0 0.00 0.00 0.00 23 1020.3
20260904001018 24 352 4.8 8.0 0.00 0.00 0.00 23 1020.3
20260904000518 24 5 3.2 4.8 0.00 0.00 0.00 23 1020.3
20260904000018 24 5 4.8 9.7 0.00 0.00 0.00 23 1020.3
20260903235510 24 0 8.0 9.7 0.00 0.00 0.00 23 1020.3
20260903234017 25 12 3.2 8.0 0.00 0.00 0.00 24 1020.3
20260903233518 25 11 4.8 12.9 0.00 0.00 0.00 23 1020.2
20260903233018 25 12 8.0 11.3 0.00 0.00 0.00 24 1020.2
20260903232519 25 13 6.4 11.3 0.00 0.00 0.00 24 1020.3
20260903232018 24 17 6.4 11.3 0.00 0.00 0.00 24 1020.3
20260903231519 24 18 6.4 11.3 0.00 0.00 0.00 25 1020.3
20260903231017 23 27 6.4 9.7 0.00 0.00 0.00 25 1020.2
20260903230518 23 9 4.8 8.0 0.00 0.00 0.00 26 1020.2
20260903230018 23 13 4.8 8.0 0.00 0.00 0.00 25 1020.1
20260903225507 24 14 4.8 8.0 0.00 0.00 0.00 25 1020.1
20260903225017 25 14 3.2 8.0 0.00 0.00 0.00 24 1020.1
20260903224519 25 35 3.2 4.8 0.00 0.00 0.00 24 1020.0
20260903224018 25 35 0.0 0.0 0.00 0.00 0.00 23 1020.0
20260903223518 25 35 0.0 0.0 0.00 0.00 0.00 23 1020.1
20260903223018 25 35 0.0 0.0 0.00 0.00 0.00 24 1020.0
20260903222518 25 23 0.0 0.0 0.00 0.00 0.00 24 1020.1
20260903221518 26 23 1.6 4.8 0.00 0.00 0.00 23 1019.9
20260903221018 26 23 4.8 4.8 0.00 0.00 0.00 23 1019.8
20260903220519 25 30 4.8 8.0 0.00 0.00 0.00 23 1019.8
20260903220008 25 7 3.2 4.8 0.00 0.00 0.00 24 1019.8
20260903215518 25 7 4.8 8.0 0.00 0.00 0.00 23 1019.7
20260903215018 25 0 8.0 8.0 0.00 0.00 0.00 23 1019.7
20260903214518 25 4 8.0 9.7 0.00 0.00 0.00 24 1019.6
20260903214007 25 348 4.8 8.0 0.00 0.00 0.00 24 1019.6
20260903213518 25 357 4.8 8.0 0.00 0.00 0.00 23 1019.7
20260903213018 26 0 4.8 4.8 0.00 0.00 0.00 23 1019.7
20260903212018 26 4 4.8 8.0 0.00 0.00 0.00 23 1019.7
20260903211518 26 359 8.0 8.0 0.00 0.00 0.00 23 1019.8
20260903210518 26 355 4.8 4.8 0.00 0.00 0.00 22 1019.7
20260903210007 27 13 3.2 4.8 0.00 0.00 0.00 23 1019.7
20260903205518 27 13 4.8 8.0 0.00 0.00 0.00 22 1019.6
20260903205018 27 355 4.8 4.8 0.00 0.00 0.00 22 1019.6
20260903204507 27 9 4.8 8.0 0.00 0.00 0.00 22 1019.6
20260903204018 27 356 4.8 9.7 0.00 0.00 0.00 22 1019.6
20260903203508 27 355 3.2 8.0 0.00 0.00 0.00 21 1019.6
20260903202518 28 17 4.8 8.0 0.00 0.00 0.00 21 1019.4
20260903202018 28 9 4.8 8.0 0.00 0.00 0.00 20 1019.3
20260903201518 29 19 4.8 8.0 0.00 0.00 0.00 21 1019.3
20260903201018 29 31 4.8 8.0 0.00 0.00 0.00 21 1019.3
20260903200507 29 31 4.8 8.0 0.00 0.00 0.00 21 1019.2
20260903195518 30 356 4.8 8.0 0.00 0.00 0.00 21 1018.9
20260903195018 30 17 3.2 8.0 0.00 0.00 0.00 21 1018.8
20260903194518 30 20 8.0 9.7 0.00 0.00 0.00 20 1018.8
20260903194019 30 17 3.2 4.8 0.00 0.00 0.00 20 1018.7
20260903193507 30 307 3.2 4.8 0.00 0.00 0.00 21 1018.8
20260903192518 30 0 6.4 14.5 0.00 0.00 0.00 21 1018.8
20260903192007 30 1 8.0 14.5 0.00 0.00 0.00 21 1018.6
20260903191516 31 37 3.2 4.8 0.00 0.00 0.00 20 1018.6
20260903191018 32 215 0.0 0.0 0.00 0.00 0.00 19 1018.4
20260903190518 32 215 0.0 0.0 0.00 0.00 0.00 18 1018.4
20260903185518 33 215 1.6 4.8 0.00 0.00 0.00 18 1018.4
20260903185018 33 215 3.2 4.8 0.00 0.00 0.00 18 1018.4
20260903184518 34 190 1.6 4.8 0.00 0.00 0.00 17 1018.4
20260903182506 35 206 4.8 8.0 0.00 0.00 0.00 16 1018.3
20260903182007 35 195 4.8 9.7 0.00 0.00 0.00 16 1018.3
20260903181519 35 191 4.8 9.7 0.00 0.00 0.00 16 1018.4
20260903181021 35 199 9.7 12.9 0.00 0.00 0.00 16 1018.3
20260903180519 35 193 6.4 11.3 0.00 0.00 0.00 16 1018.3
20260903180007 36 194 4.8 9.7 0.00 0.00 0.00 16 1018.2
20260903175518 36 212 4.8 9.7 0.00 0.00 0.00 16 1018.3
20260903175018 36 232 4.8 12.9 0.00 0.00 0.00 16 1018.2
20260903174507 36 221 6.4 14.5 0.00 0.00 0.00 15 1018.2
20260903174007 36 214 4.8 12.9 0.00 0.00 0.00 15 1018.3
20260903173507 36 206 6.4 11.3 0.00 0.00 0.00 15 1018.3
20260903173017 36 213 8.0 12.9 0.00 0.00 0.00 15 1018.2
20260903172517 36 222 6.4 9.7 0.00 0.00 0.00 15 1018.3
20260903172006 36 192 6.4 11.3 0.00 0.00 0.00 15 1018.3
20260903171518 36 198 6.4 11.3 0.00 0.00 0.00 15 1018.3
20260903170518 36 265 6.4 14.5 0.00 0.00 0.00 15 1018.3
20260903165507 36 202 9.7 19.3 0.00 0.00 0.00 15 1018.3
20260903165018 36 224 8.0 19.3 0.00 0.00 0.00 15 1018.2
20260903164518 36 201 8.0 11.3 0.00 0.00 0.00 15 1018.3
20260903164018 36 250 4.8 19.3 0.00 0.00 0.00 15 1018.3
20260903163518 36 235 9.7 19.3 0.00 0.00 0.00 15 1018.2
20260903163018 36 231 8.0 19.3 0.00 0.00 0.00 15 1018.3
20260903162507 36 191 9.7 16.1 0.00 0.00 0.00 15 1018.3
20260903162007 36 186 9.7 19.3 0.00 0.00 0.00 15 1018.3
20260903161507 36 200 11.3 19.3 0.00 0.00 0.00 15 1018.3
20260903161007 36 191 9.7 16.1 0.00 0.00 0.00 15 1018.2
20260903160518 36 190 9.7 19.3 0.00 0.00 0.00 15 1018.2
20260903160017 36 195 11.3 19.3 0.00 0.00 0.00 15 1018.2
20260903155017 36 194 9.7 19.3 0.00 0.00 0.00 15 1018.1
20260903154507 36 136 9.7 20.9 0.00 0.00 0.00 15 1018.1
20260903154018 36 219 8.0 14.5 0.00 0.00 0.00 16 1018.0
20260903153518 36 243 12.9 19.3 0.00 0.00 0.00 16 1018.1
20260903152517 36 194 9.7 16.1 0.00 0.00 0.00 16 1018.3
20260903150007 36 177 3.2 11.3 0.00 0.00 0.00 16 1018.6
20260903145017 36 273 9.7 19.3 0.00 0.00 0.00 16 1018.7
20260903144018 36 277 3.2 11.3 0.00 0.00 0.00 16 1018.9
20260903143507 36 206 8.0 12.9 0.00 0.00 0.00 17 1018.9
20260903142506 36 295 11.3 19.3 0.00 0.00 0.00 17 1019.0
20260903142006 36 277 4.8 12.9 0.00 0.00 0.00 17 1019.0
20260903141518 36 206 11.3 19.3 0.00 0.00 0.00 17 1019.0
20260903141017 36 208 3.2 8.0 0.00 0.00 0.00 17 1019.1
20260903140017 35 258 3.2 14.5 0.00 0.00 0.00 18 1019.3
20260903135517 35 238 9.7 20.9 0.00 0.00 0.00 17 1019.4
20260903135017 35 237 9.7 19.3 0.00 0.00 0.00 19 1019.5
20260903134517 35 190 11.3 20.9 0.00 0.00 0.00 19 1019.5
20260903133517 35 165 9.7 14.5 0.00 0.00 0.00 19 1019.7
20260903133018 35 255 9.7 20.9 0.00 0.00 0.00 19 1019.7
20260903132506 35 231 9.7 20.9 0.00 0.00 0.00 19 1019.8
20260903132017 35 215 8.0 19.3 0.00 0.00 0.00 18 1019.9
20260903131507 35 289 11.3 22.5 0.00 0.00 0.00 19 1019.9
20260903131017 35 202 12.9 27.4 0.00 0.00 0.00 19 1020.0
20260903130506 35 294 8.0 20.9 0.00 0.00 0.00 19 1019.9
20260903130007 35 302 8.0 22.5 0.00 0.00 0.00 18 1019.9
20260903125506 35 292 11.3 22.5 0.00 0.00 0.00 18 1020.0
20260903124517 34 265 6.4 20.9 0.00 0.00 0.00 17 1019.9
20260903124017 34 207 9.7 19.3 0.00 0.00 0.00 16 1019.9
20260903123518 34 244 8.0 19.3 0.00 0.00 0.00 18 1020.0
20260903123018 34 218 11.3 22.5 0.00 0.00 0.00 18 1020.0
20260903122518 34 216 9.7 19.3 0.00 0.00 0.00 19 1020.1
20260903121517 34 258 11.3 25.7 0.00 0.00 0.00 18 1020.2
20260903121018 33 210 9.7 19.3 0.00 0.00 0.00 21 1020.3
20260903120518 33 201 11.3 20.9 0.00 0.00 0.00 18 1020.3
20260903120007 33 242 8.0 14.5 0.00 0.00 0.00 20 1020.3
20260903115517 33 221 8.0 14.5 0.00 0.00 0.00 26 1020.3
20260903115017 32 207 4.8 16.1 0.00 0.00 0.00 27 1020.4
20260903114518 32 197 4.8 11.3 0.00 0.00 0.00 28 1020.4
20260903114007 32 245 3.2 12.9 0.00 0.00 0.00 28 1020.5
20260903113518 32 202 4.8 16.1 0.00 0.00 0.00 27 1020.5
20260903113017 32 207 8.0 14.5 0.00 0.00 0.00 27 1020.6